Uncategorized

2021 Ratings: OK Red 1

How Are Speed Ratings Calculated?

Girls Adjustment: +25
Boys Adjustment: +19

GradeNameTimeTeamRating
11Arianne Olson17:11.4Holland West Ottawa167.9
9Helen Sachs17:36.8Holland West Ottawa159.4
12Abby Bonnema18:27.4Holland West Ottawa142.5
9Valerie Beeck19:06.0Grand Haven129.7
12Kaia Denhof19:12.7Holland West Ottawa127.4
11Maya Guikema19:13.4Jenison127.2
9Gracey Barry19:23.7Grand Haven123.8
12Sophie Bonnema19:25.2Holland West Ottawa123.3
10Payton Hosley19:33.1Grand Haven120.6
9Devin Fisher19:39.7Rockford118.4
11Cadence Schultz19:43.6East Kentwood117.1
10Camille Dahlke19:47.7Rockford115.8
12Lilly Weirich19:48.1Rockford115.6
11Megan Postma19:49.9Holland West Ottawa115.0
9Emma Gunnett19:56.2Holland West Ottawa112.9
9Addison Smith19:56.9Grand Haven112.7
11Abby Martin20:01.7Hudsonville111.1
9Natalie Lewis20:03.1Rockford110.6
12Bailey Ewen20:06.4Rockford109.5
11Maggie Otto20:09.1Jenison108.6
10Kate Wayne20:10.0Hudsonville108.3
12Tatum Verburg20:11.2Caledonia107.9
9Jane Olney20:11.6Holland West Ottawa107.8
11Elise Conkel20:13.4Hudsonville107.2
12Anna Tracey20:18.9Rockford105.4
12Mara Sweeney20:20.4Rockford104.9
12Barbara DeGood20:30.0Caledonia101.7
11Natalia Quigley20:32.1Caledonia101.0
12Rachael Barone20:38.6Jenison98.8
11Natalie Allshouse20:42.1Rockford97.6
10Laurel Tolliver20:43.5Grand Haven97.2
9Klea Verstrate20:44.3Hudsonville96.9
12Lily Strelecki20:47.5Jenison95.8
12Taylor Fairchild20:48.3Caledonia95.6
11Madelyn Fennema20:48.7Caledonia95.4
9Lily Frendt20:49.0Grand Haven95.3
9Abbey Scholma20:52.2Hudsonville94.3
11Margot Frendt20:52.2Grand Haven94.3
9Julia Frampton20:54.6Holland West Ottawa93.5
9Emma Smith20:56.5Rockford92.8
11Sarah Etcher21:06.4Grandville89.5
12Paige Glass21:07.1Hudsonville89.3
11Leah Thompson21:07.6Caledonia89.1
12Kaitlynn Robotham21:08.7Caledonia88.8
10Lauren Catton21:15.0Holland West Ottawa86.7
12Alicia Sabin21:18.8Hudsonville85.4
12Claire Stevens21:18.8Grand Haven85.4
9Danika Denhof21:20.9Holland West Ottawa84.7
12Halle Bovee21:21.4Grand Haven84.5
10Shae Brodie21:25.1Grand Haven83.3
10Leanna Barnett21:25.4Rockford83.2
10Johanna Evink21:28.9Grand Haven82.0
9Randi Pennington21:33.6Jenison80.5
12Lola Schuler21:37.2Caledonia79.3
9Avalynn Klapmust21:38.6Caledonia78.8
9Naomi Diekman21:38.7Jenison78.8
9Andrea Sweet21:41.7Grand Haven77.8
11Nora Hoekert21:43.2Rockford77.3
9Elizabeth Kunzi21:44.3Hudsonville76.9
10Jordyn Harrington21:45.5Grandville76.5
12Claire Vellinga21:47.1Holland West Ottawa76.0
9Addison Rozema21:51.0Hudsonville74.7
10Alyssa DeFields21:53.8Caledonia73.7
9Olivia VerBeek21:54.5Jenison73.5
12Emma Heidema21:55.1Hudsonville73.3
9Adysen Daman21:55.2Caledonia73.3
12Torionna Waterman21:56.3East Kentwood72.9
9Lauren Tower21:56.5Jenison72.8
11Kailym Tuggle21:58.9Grand Haven72.0
10Izzy Phelps21:59.1Grand Haven72.0
12Shelby Flory22:05.3Hudsonville69.9
12Chloe Fornetti22:06.8East Kentwood69.4
9Melana Karsten22:11.3Rockford67.9
10Leah Vanspronsen22:11.4Grandville67.9
9Reese Meyers22:12.1Hudsonville67.6
9Chloe DeRidder22:15.7Grandville66.4
10Rachel Ryan22:21.6Grand Haven64.5
11Gracey Bento22:23.7East Kentwood63.8
12Evelyn Grimm22:28.2Rockford62.3
12Hailey Fike22:30.1Rockford61.6
9Audrey Huff22:30.2Grandville61.6
9Mila Schneider22:35.5Rockford59.8
9Abi Albright22:38.8Grand Haven58.7
12Ella Schuler22:40.6Caledonia58.1
12Anna VanderWege22:44.3Holland West Ottawa56.9
10Audrey Howell22:44.5Caledonia56.8
10Anna Roest-Hanson22:46.0Grand Haven56.3
12Caitlin Derby22:52.5Holland West Ottawa54.2
9Kayla Mabry22:57.0Rockford52.7
10Kloe Kimbrell22:59.4Caledonia51.9
10Anika Blazic22:59.5Rockford51.8
11Elise Ferguson22:59.9Grandville51.7
11Erika Quibell23:03.0East Kentwood50.7
11Sylvia Sandman23:06.7Rockford49.4
12Emma Sweeney23:08.2Rockford48.9
11Lillian Reiner23:08.3Holland West Ottawa48.9
10Alanna Mulligan23:09.6Rockford48.5
9Tessa Minnear23:10.7Hudsonville48.1
12Alison Doerr23:11.3Grand Haven47.9
9Sabrina Bielecki23:13.6Hudsonville47.1
12Kelsey Kirkbride23:20.9Caledonia44.7
9Cece Frendt23:21.9Grand Haven44.4
12Laura Robotham23:26.4Caledonia42.9
10Lola Van Stedum23:29.3Hudsonville41.9
10Maija Carlson23:37.0Rockford39.3
11Marissa DeWitte23:37.5Hudsonville39.2
9Lizzy Carillo23:46.4Grandville36.2
10Giulia Arone23:51.3Holland West Ottawa34.6
9Elisabeth Orr23:54.5Rockford33.5
12Emily Danks23:55.7Rockford33.1
9Lauren Hills23:57.4Hudsonville32.5
12Zoe Spasaro24:05.8Hudsonville29.7
9Alayna Godfrey24:06.0East Kentwood29.7
9Rachel Baxter24:06.7Hudsonville29.4
11Mariah Martinez24:07.7Grandville29.1
12Kaitlyn Dryburgh24:16.5Caledonia26.2
9Daphne Deaton24:22.5Hudsonville24.2
9Brianna Nixon24:27.8Hudsonville22.4
9Kirstyn Wilson24:28.2Holland West Ottawa22.3
10Hannah Barone24:30.3Jenison21.6
10Helena Jolliffe24:34.3Rockford20.2
10Gina Mehling24:36.7Rockford19.4
10Taylor Venhuizen24:44.9Caledonia16.7
11Elizabeth Chamberl…24:50.1Rockford15.0
9Alexa Elliot24:50.6Caledonia14.8
9Halle De Man24:51.0Rockford14.7
10Julia Moxey24:54.7East Kentwood13.4
9Christina Waldmiller24:56.3Caledonia12.9
10Sela Fitzell24:56.8Caledonia12.7
12Tiffany Pham24:58.5East Kentwood12.2
9Lorelei Lake24:59.8Rockford11.7
9Ally Wiersma25:04.3Hudsonville10.2
10Lydia DeCook25:06.6Grandville9.5
11Ella McCrumb25:09.1Grandville8.6
9Kassey Pachulski25:09.2Grandville8.6
11Celia Kingscott25:09.6Grandville8.5
11Delaina Cook25:10.3Hudsonville8.2
9Brooke Hodges25:12.0Jenison7.7
9Madison Savin25:12.9Caledonia7.4
10Adriana Ramiro25:15.0Jenison6.7
11Bryana Andrade-Nava25:16.0Grandville6.3
11Adi Martin25:16.0Grandville6.3
9Amber Fairchild25:17.6Caledonia5.8
10Ashlee Bozung25:17.8Hudsonville5.7
10Addison Henkel25:21.0Rockford4.7
9Hannah Dupuis25:28.5Caledonia2.2
9Leona Keuvelaar25:31.4Grandville1.2

GradeNameTimeTeamRating
11Nolan Clark15:51.4Grand Haven196.5
11Colin Graham16:01.9Rockford193.0
10Seth Norder16:04.8Grand Haven192.1
12Josh Oom16:05.3Caledonia191.9
12Zac Zemba16:08.1Grandville191.0
12Donavan Mattson16:10.4Caledonia190.2
12Kyle Sweeney16:12.3Rockford189.6
11Jordan Domany16:20.3Caledonia186.9
12Caden Dixon16:22.4Caledonia186.2
11Brett Guzman16:25.9Caledonia185.0
11Jaben Bakker16:31.5Hudsonville183.2
12Benjamin DeGood16:34.4Caledonia182.2
11Logan Vining16:34.7Grand Haven182.1
10Cole Visser16:35.5Jenison181.8
12TJ Mellema16:39.6Rockford180.5
11Charles Lewis16:49.8Rockford177.1
12Antonio Hall16:51.7East Kentwood176.4
9Seth Conner16:53.1Jenison176.0
11Connor Wooley16:53.4Holland West Ottawa175.9
11Ethan Smith16:53.5Jenison175.8
12Jonathan Tysman16:54.4Grand Haven175.5
12Connor Lubberts16:56.1Jenison175.0
11Jacob Rottier16:57.1Hudsonville174.6
12Andrew Adams16:57.7Caledonia174.4
12Carson Lafferty17:05.3Rockford171.9
9Ben Held17:12.3Grand Haven169.6
11Brendan Wangler17:13.4Jenison169.2
12Brandon Roach17:17.6Rockford167.8
12Eric Giles17:20.1East Kentwood167.0
12Ethan Knapp17:23.5Caledonia165.8
11Will Shults17:29.9Grandville163.7
11Austin Winkle17:30.3Jenison163.6
10Justin Clement17:30.3Jenison163.6
11Sam Majoor17:34.7Rockford162.1
10Gavin Betten17:37.3Rockford161.2
10Nate Fahey17:41.8Rockford159.7
12Colin Pearson17:42.5Caledonia159.5
11Eli DeCook17:42.7Grandville159.4
10Rodrique Shema17:44.4East Kentwood158.9
11Blake Elliot17:46.4Caledonia158.2
11Owen Lawrence17:47.1East Kentwood158.0
11Landon Wade17:47.2East Kentwood157.9
9Mason Lucas17:49.0Jenison157.3
12Mayson Levandoski17:55.4Holland West Ottawa155.2
10Micah Nagel17:59.3Caledonia153.9
9Kort Thompson17:59.5Caledonia153.8
11Will Marth18:02.1Jenison153.0
9Mason Morrell18:04.3Caledonia152.2
9Tommy Lobbezoo18:07.1Hudsonville151.3
12Isaac Easter18:13.3Holland West Ottawa149.2
9Andrew Wangler18:14.1Jenison149.0
9Dominic Otto18:14.5Jenison148.8
11Elliott Clayton18:15.6Rockford148.5
11Liam Peterson18:16.8Rockford148.1
9Matthew Schwartz18:17.2Jenison147.9
11Logan Hough18:21.2Grand Haven146.6
10Jason Van Dyken18:21.9Hudsonville146.4
9Evan Nickoles18:24.2East Kentwood145.6
10Roman Smith18:25.2Grand Haven145.3
10Samuel Pugh18:26.0Caledonia145.0
9Isaac Tanis18:26.9East Kentwood144.7
11William Hyson18:29.1Jenison144.0
11Ben Monger18:29.5Holland West Ottawa143.8
11Evan Kornoelje18:31.7Grandville143.1
12Noah Miller18:32.0Jenison143.0
11Wyatt Putman18:33.1Holland West Ottawa142.6
11Owen Foster18:34.8Holland West Ottawa142.1
11Conner Hunt18:36.2Rockford141.6
12Gabe TerHaar18:36.4Jenison141.5
10Connor Gabel18:37.0Grand Haven141.3
11Luke Martin18:37.6Hudsonville141.1
12Kristian Rose18:37.8Jenison141.1
12Joey Shotts18:38.3Jenison140.9
11Karl Kepler18:39.8Grandville140.4
12Chase Layman18:41.0Grand Haven140.0
11Gordon Schneider18:42.7Grand Haven139.4
9Garrett Smith18:43.3Hudsonville139.2
10Ayden Duffin18:43.9Caledonia139.0
11Austin Miller18:48.0Rockford137.7
11Jacob Mertes18:49.4Rockford137.2
9Logan Toland18:50.4Hudsonville136.9
12Josh Gorsh18:52.9Grandville136.0
12Jack Paras18:57.3Rockford134.6
9William Sheely18:57.6Caledonia134.5
11Damien Freeman18:58.1Grandville134.3
12Paul Dailey18:59.1Caledonia134.0
9Nathan Chapin18:59.1Jenison134.0
10Evan Ball19:06.7Hudsonville131.4
12Ryan Larson19:06.8Grand Haven131.4
10Maxwell Krausman19:07.9Rockford131.0
10Foster Boak19:08.7Hudsonville130.8
9Carson Berko19:10.5Grand Haven130.2
11Trenton Winter19:11.0Rockford130.0
9Noah Schuette19:12.1Rockford129.6
12Grady Schneider19:12.2Caledonia129.6
10Grayson Lentner19:12.3Hudsonville129.6
9Cameron Weibel19:12.7Caledonia129.4
11Eric Sorrell19:13.9Caledonia129.0
12Jackson Gibney19:15.1Grandville128.6
10Nic VanderKodde19:19.0Hudsonville127.3
11Alex Drzewicki19:21.8Hudsonville126.4
12Jaden Henderson19:23.5Jenison125.8
12Ryan Hough19:24.3Grand Haven125.6
11Ryan Karwowski19:24.4Rockford125.5
11Robert Horton19:24.5Rockford125.5
12Grant Bell19:25.0Grand Haven125.3
9Hudson VanOstenberg19:25.1Rockford125.3
12James Held19:27.2Grand Haven124.6
10Ben Vitkauskas19:27.8Rockford124.4
11Gabe Rowell19:27.9Hudsonville124.4
10Levi Moss19:28.2Caledonia124.3
9Ethan Buer19:32.0Caledonia123.0
11Reece Ondersma19:33.0Jenison122.7
12Ross Fiske19:33.3Rockford122.6
9Dylan Pfeffer19:43.7Hudsonville119.1
12Donovan Sanchez19:44.1East Kentwood119.0
11Owen VanAntwerpen19:46.0Grand Haven118.3
10Cal Hearn19:46.8Rockford118.1
11Owen Lewis19:47.5Hudsonville117.8
9Max Corbat19:55.4Grand Haven115.2
9Joseph Robison19:55.9East Kentwood115.0
11Braylon Anderson19:58.5Grandville114.2
11Jared Leitch19:58.7Rockford114.1
10Dominik Lamberts19:59.1Jenison114.0
12Jacob Bissell20:01.3Rockford113.2
11Antonio Espinosa20:01.4Rockford113.2
9Kaiden Murdoch20:04.6Grandville112.1
11Luke Meyer20:04.8Grandville112.1
9Joshua Maier20:04.8Caledonia112.1
9Cameron Davenport20:05.8Holland West Ottawa111.7
9Jack Baltes20:07.3Jenison111.2
9Ethan Gerlach20:08.2Holland West Ottawa110.9
9Ethan Henry20:08.2Jenison110.9
11Logan Smith20:11.1Jenison110.0
11Dean Kauffman20:13.8Rockford109.1
10Kalum Carroll20:15.0Rockford108.7
11Davis Laubaugh20:16.8Grandville108.1
12Miles Simundo20:18.3Caledonia107.6
9Maclin Stidolph20:18.5East Kentwood107.5
12Matthew Kunzi20:18.9Hudsonville107.4
9Dylan Leyendecker20:19.5Hudsonville107.2
11Henry Marshall20:21.5Grandville106.5
12Nolan Reynolds20:21.7Caledonia106.4
10Maikhoi Christensen20:23.7East Kentwood105.8
10Noah Britton20:24.4Jenison105.5
9Benjamin Slagter20:25.6Jenison105.1
10Trey Bringedahl20:26.4Rockford104.9
9Zachary Brown20:27.9East Kentwood104.4
12Quinten Burlew20:28.7Jenison104.1
10Ethan Le20:34.0East Kentwood102.3
9Devon Lauters20:35.2Grandville101.9
11Caleb Romans20:36.5Holland West Ottawa101.5
9Teo Wilkerson20:40.8Grandville100.1
11Charlie Grimm20:44.6Rockford98.8
9Micah Derks20:45.7Jenison98.4
9Michael Palma20:51.9Hudsonville96.4
10Landon Long20:52.1Rockford96.3
9Emilio Bultman21:00.0Rockford93.7
9Aidan Edgar21:00.5Caledonia93.5
9Jacob Marth21:01.0Jenison93.3
10Cameron Handwerker21:05.7Rockford91.8
10Brayden Czarnecki21:05.8Jenison91.7
9Aidan Ohanyan21:05.9Hudsonville91.7
11Ben Cadieux21:06.4Holland West Ottawa91.5
9David Potgeter21:06.5Caledonia91.5
9Jacob Hector21:06.7Grandville91.4
12Eli Mester21:07.2East Kentwood91.3
12Zachary Burgess21:08.6Caledonia90.8
10James Thorpe21:10.8Jenison90.1
10Justin Pham21:11.3East Kentwood89.9
9Cameron Wright21:12.3Caledonia89.6
9Dalton Ed21:13.2Caledonia89.3
12Ethan Pyscher21:22.4Caledonia86.2
12Nick Engel21:22.5Rockford86.2
12Owen Colburn21:25.4Caledonia85.2
12Carl Jaeger21:27.1Grand Haven84.6
9Talen Verburg21:33.4Caledonia82.5
10Jacob Hallenbeck21:34.3Rockford82.2
11Dylan Lieckfelt21:35.0East Kentwood82.0
10Liam VanHouten21:38.0Hudsonville81.0
9Alejandro Guzman-M…21:41.5East Kentwood79.8
9Aiden Sierra21:42.5Holland West Ottawa79.5
10Malachi Kapenga21:46.2Hudsonville78.3
9Elijah Stevens21:46.6Grandville78.1
11Josh Hector21:48.4Grandville77.5
9Nolan Pike21:50.8Caledonia76.7
11Ryan Van Dyken21:59.9Hudsonville73.7
10Parker Moore22:11.7Hudsonville69.8
9Owen Rowell22:13.4Hudsonville69.2
9Isaiah LaDuke22:19.0Holland West Ottawa67.3
9Caleb Bomhof22:22.0Holland West Ottawa66.3
10Yalmaz Javaid22:27.6Hudsonville64.5
11Josh Louks22:32.2Holland West Ottawa62.9
10Tyler Watson22:36.0Hudsonville61.7
9Isaac Vierzen22:36.1Hudsonville61.6
12Ben Sanders22:36.4Holland West Ottawa61.5
9Andrew Tava22:38.2Caledonia60.9
10Noah Bosma22:45.0Holland West Ottawa58.7
9Joel Hoppe22:47.2Holland West Ottawa57.9
9Cayden Apol22:47.8Hudsonville57.7
12De’Cary Spuric22:48.3East Kentwood57.6
9Cole Hinterman22:54.5Hudsonville55.5
10Vyacheslav Yuguy23:17.1Rockford48.0
11Adam Spees23:17.7Caledonia47.8
9Jack Tuttle23:21.7Hudsonville46.4
12Alex Hyma23:21.8Jenison46.4
12Billy Scholten23:28.1Hudsonville44.3
10Tucker Wolf23:29.8Hudsonville43.7
9Jayden Champion23:32.7Grandville42.8
9Lucas Licari23:51.4Grandville36.5
9Zach VanDerMeulen24:06.3Hudsonville31.6
11Richard Dragivich24:19.2Jenison27.3
9Noah Reinsma24:30.6Hudsonville23.5
9Brody Benjamin25:33.8Caledonia2.4

Leave a Reply

Fill in your details below or click an icon to log in:

WordPress.com Logo

You are commenting using your WordPress.com account. Log Out /  Change )

Google photo

You are commenting using your Google account. Log Out /  Change )

Twitter picture

You are commenting using your Twitter account. Log Out /  Change )

Facebook photo

You are commenting using your Facebook account. Log Out /  Change )

Connecting to %s